sat.trackr.live / text

‹ back to catalog

STARLINK-5841

NORAD 56493 · 2023-064AX

PAYLOAD ACTIVE UNKNOWN

§ Identity

Operator
Country
US
Launch date
2023-05-10
Launch site
AFWTR
Launch vehicle
Mass (kg)
RCS (m²)

Purposes: comms

External: N2YO · Heavens-Above · Gunter

§ Orbital elements

Epoch: 2026-09-20T22:00:03.000096Z

Period
95.63 min
Inclination
70.0010°
Eccentricity
0.0006039
Mean motion
15.05804041 rev/d
Perigee alt
544.9 km
Apogee alt
553.2 km
Semi-major
6,927.2 km
B*
5.6521e-3
RAAN
312.1692°
Arg perigee
250.1053°
Mean anomaly
335.4881°
Rev number
576

§ Raw data

STARLINK-58411 56493U 23064AX  26263.91670139  .00083010  00000+0  56521-2 0  99992 56493  70.0010 312.1692 0006039 250.1053 335.4881 15.05804041  5763

JSON: /api/v1/satellites/56493 · /tle

For live sub-satellite position, see the globe view (requires WebGL).

§ Visibility from observer

Set your observer location to see the next 7 days of passes ≥ 10°. The values pass through the URL so the page stays shareable.

No JS? Fill the form by hand. The geolocation button needs JavaScript.